Location: Kitt Peak
(31.9514°N, 111.6156°W)
Time: 14:17:23
(UTC-07:00)

ISS - Pass Details

Date: 08 December 2021
Orbit: 414 x 422 km, 51.6° (Epoch: 16 January)

Event Time Altitude Azimuth Distance (km) Brightness Sun altitude
Rises 17:52:53 0° 322° (NW) 2,361 0.3 -6.7°
Reaches altitude 10° 17:55:05 10° 331° (NNW) 1,494 -0.9 -7.2°
Maximum altitude 17:58:14 37° 40° (NE) 657 -3.2 -7.8°
Drops below altitude 10° 18:01:22 10° 111° (ESE) 1,483 -1.4 -8.4°
Enters shadow 18:03:01 - 118° (ESE) 2,128 -0.6 -8.7°
